Weather History for Greenwood, SC

Change the Weather History Date:

Sunday, September 29, 2013

  Actual Average (KAND) Record (KAND)
Temperature  
Mean Temperature 62 °F -  
Max Temperature 75 °F 78 °F 90 °F (1955)
Min Temperature 52 °F 58 °F 44 °F (2003)
Degree Days  
Heating Degree Days 2    
Growing Degree Days 12 (Base 50)    
Moisture  
Dew Point 54 °F    
Average Humidity 79    
Maximum Humidity 94    
Minimum Humidity 46    
Precipitation  
Precipitation 0.00 in - - ()
Sea Level Pressure  
Sea Level Pressure 30.13 in    
Wind  
Wind Speed 3 mph (NNE)    
Max Wind Speed 8 mph    
Max Gust Speed -    
Visibility 10 miles    
Events      
Averages and records for this station are not official NWS values.
T = Trace of Precipitation, MM = Missing Value Source: NWS Daily Summary

Daily Weather History Graph

Daily Weather History Graph

Search for Another Location

Airport:

Trip Planner

Search our weather history database for the weather conditions in past years. The results will help you decide how hot, cold, wet, or windy it might be!

Date:

Astronomy

Sep. 29, 2013 Rise Set
Actual Time 7:21 AM EDT 7:15 PM EDT
Civil Twilight 6:56 AM EDT 7:40 PM EDT
Nautical Twilight 6:27 AM EDT 8:09 PM EDT
Astronomical Twilight 5:58 AM EDT 8:38 PM EDT
Moon 2:14 AM EDT (9/29) 3:59 PM EDT (9/29)
Length of Visible Light 12h 43m
Length of Day
11h 53m
Waning Crescent, 27% of the Moon is Illuminated
Sep 29
Waning Crescent
Oct 4
New
Oct 11
First Quarter
Oct 18
Full
Oct 26
Last Quarter

Hourly Weather History & Observations

Time (EDT) Temp. Dew Point Humidity Pressure Visibility Wind Dir Wind Speed Gust Speed Precip Events Conditions
12:56 AM 55.0 °F 51.1 °F 86% 30.18 in 10.0 mi North 4.6 mph - N/A   Clear
1:56 AM 54.0 °F 51.1 °F 90% 30.18 in 10.0 mi Calm Calm - N/A   Clear
2:56 AM 54.0 °F 51.1 °F 90% 30.18 in 10.0 mi North 4.6 mph - N/A   Scattered Clouds
3:56 AM 53.1 °F 50.0 °F 89% 30.17 in 10.0 mi NNW 3.5 mph - N/A   Clear
4:56 AM 52.0 °F 50.0 °F 93% 30.17 in 10.0 mi North 4.6 mph - N/A   Clear
5:56 AM 52.0 °F 50.0 °F 93% 30.16 in 10.0 mi North 4.6 mph - N/A   Clear
6:56 AM 52.0 °F 50.0 °F 93% 30.18 in 10.0 mi North 3.5 mph - N/A   Partly Cloudy
7:26 AM 53.6 °F 51.8 °F 94% 30.18 in 9.0 mi North 3.5 mph - N/A   Mostly Cloudy
7:36 AM 53.6 °F 51.8 °F 94% 30.18 in 10.0 mi Calm Calm - N/A   Mostly Cloudy
7:56 AM 54.0 °F 51.1 °F 90% 30.17 in 9.0 mi Calm Calm - N/A   Partly Cloudy
8:56 AM 57.9 °F 54.0 °F 87% 30.19 in 10.0 mi North 5.8 mph - N/A   Clear
9:56 AM 63.0 °F 57.0 °F 81% 30.18 in 10.0 mi NE 8.1 mph - N/A   Clear
10:56 AM 66.9 °F 57.0 °F 70% 30.17 in 10.0 mi Variable 6.9 mph - N/A   Scattered Clouds
11:56 AM 71.1 °F 55.9 °F 59% 30.15 in 10.0 mi Variable 5.8 mph - N/A   Partly Cloudy
12:56 PM 71.1 °F 53.1 °F 53% 30.14 in 10.0 mi ENE 4.6 mph - N/A   Mostly Cloudy
1:56 PM 73.9 °F 52.0 °F 46% 30.11 in 10.0 mi ENE 5.8 mph - N/A   Mostly Cloudy
2:56 PM 73.0 °F 52.0 °F 48% 30.08 in 10.0 mi NNW 4.6 mph - N/A   Overcast
3:56 PM 73.9 °F 53.1 °F 48% 30.06 in 10.0 mi Variable 3.5 mph - N/A   Scattered Clouds
4:56 PM 73.0 °F 54.0 °F 51% 30.05 in 10.0 mi NE 4.6 mph - N/A   Scattered Clouds
5:56 PM 71.1 °F 57.0 °F 61% 30.06 in 10.0 mi Calm Calm - N/A   Mostly Cloudy
6:56 PM 66.9 °F 59.0 °F 76% 30.07 in 10.0 mi Calm Calm - N/A   Overcast
7:56 PM 63.0 °F 59.0 °F 87% 30.07 in 10.0 mi Calm Calm - N/A   Clear
8:56 PM 62.1 °F 59.0 °F 90% 30.07 in 10.0 mi Calm Calm - N/A   Clear
9:56 PM 59.0 °F 57.0 °F 93% 30.08 in 10.0 mi Calm Calm - N/A   Clear
10:56 PM 57.9 °F 55.9 °F 93% 30.07 in 10.0 mi Calm Calm - N/A   Clear
11:56 PM 57.9 °F 55.9 °F 93% 30.06 in 10.0 mi Calm Calm - N/A   Clear